Starlink 30400

operational
NORAD ID: 57937 Int'l Des: 2023-148 Owner: SPXS Country: US Constellation: starlink
LEOCIRCULAR

关于 Starlink 30400

正在加载描述...

实时位置

正在加载3D地球...

即将过境

高度历史

Altitude vs Time

uPlot chart will show altitude changes over time

两行轨道根数

1 57937U 23148C 25304.17346919 .00000489 00000-0 28625-4 0 9991
2 57937 53.1594 265.7856 0001219 82.1965 277.9175 15.30194145118598
Epoch: Oct 31, 2025 • Age: 20 hours

当前状态

高度 488.5 km
速度 7.62 km/s
星下点 -38.48°S, 78.06°E
发射日期 Sep 25, 2023
运行时间 2 years
类型 internet

技术详情

分类 Payload
质量 730.00 kg
干质量 700.00 kg
总质量 730.00 kg
长度 0.30 m
直径 4.10 m
跨度 29.00 m
形状 Box + pan
制造商 SPXS
平台类型 Starlink V2M
阶段状态 In Orbit
所有者/国家 SPXS/US

大型星座

Loading constellations...